Terminal Aerodrome Forecast
Issued by NWS

Home | Current Version | Previous Version | Text Only | Print | Product List | Glossary On
Versions: 1 2 3 4 5 6 7 8 9 10 11 12 13 14 15 16 17 18 19 20 21 22 23 24 25 26 27 28 29 30 31 32 33 34 35 36 37 38 39 40 41 42
000
FTAK31 PANC 011741
TAFAVD
TAF
PAVD 011741Z 0118/0218 VRB04KT P6SM FEW035 BKN120
     FM012200 26009KT P6SM SCT050 BKN100
     FM020500 08005KT P6SM SCT030 OVC045
      AMD LTD TO CLD VIS AND WIND=

USA.gov is the U.S. government's official web portal to all federal, state and local government web resources and services.